Printer-friendly version

IAU Minor Planet Center

Minor Planet Center

MPEC 2005-X63 : 2005 XV77

The following Minor Planet Electronic Circular may be linked-to from your own Web pages, but must not otherwise be redistributed electronically.

A form allowing access to any MPEC is at the bottom of this page.


Read MPEC 2005-X62 Read MPEC 2005-X64


M.P.E.C. 2005-X63                                Issued 2005 Dec. 11, 23:12 UT

     The Minor Planet Electronic Circulars contain information on unusual
         minor planets and routine data on comets.  They are published
   on behalf of Commission 20 of the International Astronomical Union by the
          Minor Planet Center, Smithsonian Astrophysical Observatory,
                          Cambridge, MA 02138, U.S.A.

                  Supported in part by the Brinson Foundation
                  Supported in part by the TABASGO Foundation
             Prepared using the Tamkin Foundation Computer Network

                              MPC@CFA.HARVARD.EDU
          URL http://cfa-www.harvard.edu/iau/mpc.html  ISSN 1523-6714

                                   2005 XV77

Observations:
     K05X77V* C2005 12 10.46816 11 54 47.08 +51 45 58.4          18.8 V EX063703
     K05X77V  C2005 12 10.47584 11 54 42.26 +51 46 25.8          19.3 V EX063703
     K05X77V  C2005 12 10.48347 11 54 37.29 +51 46 54.1          19.0 V EX063703
     K05X77V  C2005 12 10.49363 11 54 30.78 +51 47 31.8          18.7 V EX063703
     K05X77V  C2005 12 10.50318 11 54 24.58 +51 48 06.8          18.9 V EX063703
     K05X77V  C2005 12 10.51260 11 54 18.60 +51 48 43.3          18.2 V EX063703
     K05X77V  C2005 12 10.52202 11 54 12.17 +51 49 15.7          18.7 V EX063703
     K05X77V  C2005 12 10.99541 11 49 12.96 +52 16 15.0                 EX063J95
     K05X77V  C2005 12 11.00867 11 49 04.28 +52 17 04.6                 EX063J95
     K05X77V  C2005 12 11.02201 11 48 55.60 +52 17 55.3                 EX063J95
     K05X77V  C2005 12 11.03449 11 48 47.44 +52 18 41.3                 EX063J95
     K05X77V  C2005 12 11.04631 11 48 39.55 +52 19 26.2          18.5 R EX063J95
     K05X77V  C2005 12 11.08681 11 48 12.08 +52 22 08.5          18.5 R EX063118
     K05X77V  C2005 12 11.09027 11 48 09.73 +52 22 21.2          18.5 R EX063118
     K05X77V  C2005 12 11.09723 11 48 04.99 +52 22 47.4          18.4 R EX063118
     K05X77V  C2005 12 11.81174 11 39 49.54 +53 04 01.9                 EX063J95
     K05X77V  C2005 12 11.82622 11 39 39.43 +53 04 55.2                 EX063J95
     K05X77V  C2005 12 11.85700 11 39 17.99 +53 06 47.1                 EX063J95
     K05X77V  C2005 12 11.87359 11 39 06.50 +53 07 46.8          18.3 R EX063J95

Observer details:
118 Modra.  Observers S. Gajdos, J. Vilagi.  0.6-m f/5.5 reflector + CCD.
703 Catalina Sky Survey.  Observer R. A. Kowalski.  Measurers E. C. Beshore,
    E. J. Christensen, G. J. Garradd, A. D. Grauer, R. E. Hill, R. A. Kowalski,
    S. M. Larson, R. H. McNaught.  0.68-m Schmidt + CCD.
J95 Great Shefford.  Observer P. Birtwhistle.  0.40-m f/6.0 Schmidt-Cassegrain
    + CCD.

Orbital elements:
2005 XV77
Epoch 2005 Nov. 26.0 TT = JDT 2453700.5                 MPC
M  99.68155              (2000.0)            P               Q
n   1.42545502     Peri.    9.20103     +0.35663803     +0.88772043
a   0.7819285      Node   282.12843     -0.87497725     +0.20815504
e   0.4200051      Incl.   17.32465     -0.32745094     +0.41063844
P   0.69           H   20.6           G   0.15
From 19 observations 2005 Dec. 10-11.

Ephemeris:
2005 XV77                a,e,i = 0.78, 0.42, 17                  q = 0.4535
Date    TT    R. A. (2000) Decl.     Delta      r     Elong.  Phase     V
2005 12 06    12 30.95   +47 36.6    0.161    1.001    91.0    79.8    19.4
2005 12 08    12 16.85   +49 24.1    0.151    1.010    95.3    76.1    19.2
2005 12 10    11 59.41   +51 18.3    0.142    1.019   100.1    72.1    18.9
2005 12 12    11 37.53   +53 16.1    0.133    1.028   105.3    67.6    18.7
2005 12 14    11 09.85   +55 10.8    0.125    1.036   111.0    62.5    18.4
2005 12 16    10 34.96   +56 49.7    0.118    1.043   117.3    56.9    18.1
2005 12 18    09 52.07   +57 53.0    0.111    1.051   124.3    50.7    17.8
2005 12 20    09 02.30   +57 54.9    0.106    1.057   131.7    44.0    17.5
2005 12 22    08 09.59   +56 33.1    0.103    1.064   139.4    37.0    17.3
2005 12 24    07 19.49   +53 40.8    0.101    1.070   147.0    30.1    17.1
2005 12 26    06 36.20   +49 33.3    0.101    1.075   153.6    24.0    16.9
2005 12 28    06 01.14   +44 39.6    0.104    1.080   158.0    20.0    16.8
2005 12 30    05 33.64   +39 30.5    0.108    1.085   159.0    19.0    16.9
2006 01 01    05 12.31   +34 29.5    0.114    1.089   156.8    20.9    17.1
2006 01 03    04 55.78   +29 51.4    0.122    1.093   152.7    24.3    17.4
2006 01 05    04 42.89   +25 42.6    0.131    1.097   148.1    28.3    17.6
2006 01 07    04 32.79   +22 04.5    0.141    1.100   143.4    32.2    17.9
2006 01 09    04 24.84   +18 55.5    0.152    1.103   139.0    35.8    18.2
2006 01 11    04 18.55   +16 12.4    0.164    1.105   134.8    39.1    18.4
2006 01 13    04 13.57   +13 52.1    0.176    1.107   131.0    42.1    18.7

2006 01 15    04 09.65   +11 51.2    0.188    1.108   127.5    44.7    18.9
2006 01 25    04 00.32   +05 09.6    0.254    1.110   113.4    54.5    19.8
2006 02 04    04 00.65   +01 42.2    0.319    1.101   102.7    60.9    20.5
2006 02 14    04 05.69   -00 15.0    0.380    1.082    93.9    65.6    21.0
2006 02 24    04 13.04   -01 28.2    0.434    1.053    86.1    69.7    21.3
2006 03 06    04 21.31   -02 20.0    0.476    1.014    78.8    73.8    21.6
2006 03 16    04 29.19   -03 03.1    0.506    0.964    71.7    78.5    21.8
2006 03 26    04 35.06   -03 42.1    0.520    0.903    64.3    84.4    21.9

Brian G. Marsden             (C) Copyright 2005 MPC           M.P.E.C. 2005-X63

Read MPEC 2005-X62 Read MPEC 2005-X64


MPEC number:

Enter an
MPEC number in one of the following forms:
  • 1997-B01 (the full form)
  • J97B01 (the packed version of the full form)
  • B01 (the abbreviated form)

Valid HTML 4.01!